GW3933 Weather Reports


Display with metric or nautical units.
time (UTC)temp
F
wind
direction
speed
MPH
gust
MPH
rain 1hr
in
rain 24hr
in
rain mn
in
humidity
%
barometer
mb
20260506221854 44 276 0.0 1.0 0.00 0.47 0.40 98 1008.3
20260506221313 44 277 0.0 1.0 0.00 0.47 0.40 98 1008.3
20260506220812 44 273 0.0 1.0 0.00 0.47 0.40 98 1008.2
20260506220319 44 91 0.0 1.0 0.00 0.47 0.40 97 1008.3
20260506215818 44 85 0.0 2.0 0.00 0.47 0.40 98 1008.5
20260506215325 44 289 0.0 2.0 0.00 0.47 0.40 98 1008.5
20260506214825 44 276 0.0 3.0 0.00 0.47 0.40 98 1008.4
20260506214311 44 297 0.0 3.0 0.01 0.47 0.40 98 1008.3
20260506213818 44 284 0.0 2.0 0.01 0.47 0.40 98 1008.1
20260506213317 44 243 0.0 2.0 0.01 0.47 0.40 98 1008.2
20260506212911 44 238 0.0 4.0 0.01 0.47 0.40 98 1008.2
20260506212326 43 294 1.0 5.0 0.02 0.47 0.40 98 1008.1
20260506211849 43 283 1.0 5.0 0.02 0.47 0.40 98 1008.0
20260506211333 43 262 1.0 3.0 0.02 0.47 0.40 98 1008.0
20260506210812 43 293 1.0 6.0 0.02 0.47 0.40 97 1007.9
20260506210312 44 278 1.0 6.0 0.03 0.47 0.40 98 1007.9
20260506205844 44 328 1.0 5.0 0.03 0.48 0.40 98 1007.9
20260506205322 43 295 0.0 3.0 0.03 0.48 0.40 98 1007.9
20260506204822 43 221 1.0 3.0 0.03 0.48 0.40 98 1008.0
20260506204329 43 260 0.0 3.0 0.02 0.47 0.39 98 1008.1
20260506203855 43 291 1.0 5.0 0.02 0.47 0.39 98 1008.1
20260506203334 43 304 0.0 3.0 0.02 0.47 0.39 98 1008.2
20260506202819 43 255 1.0 3.0 0.03 0.47 0.39 98 1008.0
20260506202346 43 282 1.0 2.0 0.02 0.46 0.38 98 1008.1
20260506201825 43 294 0.0 4.0 0.02 0.46 0.38 97 1008.1
20260506201331 43 293 1.0 4.0 0.02 0.46 0.38 97 1008.1
20260506200837 43 111 1.0 4.0 0.02 0.46 0.38 97 1008.0
20260506200337 43 290 1.0 3.0 0.01 0.45 0.37 98 1008.1
20260506195822 43 284 1.0 4.0 0.01 0.50 0.37 97 1008.0
20260506195322 43 240 2.0 4.0 0.01 0.50 0.37 97 1008.0
20260506194829 43 314 0.0 3.0 0.01 0.50 0.37 98 1008.0
20260506194335 43 265 0.0 5.0 0.01 0.50 0.37 97 1007.9
20260506193814 43 96 1.0 5.0 0.02 0.50 0.37 97 1007.9
20260506193315 43 295 1.0 3.0 0.02 0.50 0.37 97 1007.9
20260506192822 43 284 1.0 3.0 0.01 0.49 0.36 97 1007.9
20260506192320 43 264 1.0 3.0 0.01 0.49 0.36 97 1007.9
20260506191828 43 235 0.0 4.0 0.01 0.49 0.36 97 1007.8
20260506191327 43 285 1.0 4.0 0.01 0.49 0.36 97 1007.9
20260506190834 44 291 1.0 2.0 0.01 0.49 0.36 97 1007.7
20260506190315 44 288 0.0 4.0 0.01 0.49 0.36 98 1007.9
20260506185823 44 250 0.0 4.0 0.02 0.57 0.36 98 1007.8
20260506185323 43 336 0.0 3.0 0.02 0.57 0.36 97 1007.9
20260506184851 43 294 0.0 3.0 0.02 0.57 0.36 97 1007.8
20260506184330 43 295 0.0 1.0 0.02 0.57 0.36 98 1007.9
20260506183810 43 296 0.0 2.0 0.02 0.56 0.35 98 1008.0
20260506183317 43 25 0.0 2.0 0.02 0.56 0.35 97 1007.9
20260506182824 43 214 0.0 2.0 0.02 0.56 0.35 97 1008.0
20260506182325 43 278 0.0 3.0 0.03 0.56 0.35 97 1008.2
20260506181825 43 219 1.0 3.0 0.03 0.56 0.35 97 1008.4
20260506181311 43 288 0.0 3.0 0.03 0.56 0.35 97 1008.3
20260506180811 43 296 1.0 3.0 0.04 0.56 0.35 97 1008.6
20260506180318 43 288 0.0 1.0 0.04 0.56 0.35 97 1008.5
20260506175816 43 289 0.0 2.0 0.04 0.55 0.34 97 1008.6
20260506175323 43 293 1.0 3.0 0.04 0.55 0.34 97 1008.6
20260506174823 43 295 0.0 3.0 0.04 0.55 0.34 97 1008.5
20260506174329 43 302 1.0 3.0 0.04 0.55 0.34 97 1008.7
20260506173816 43 271 1.0 3.0 0.04 0.54 0.33 97 1008.7
20260506173316 43 242 0.0 2.0 0.04 0.54 0.33 97 1008.9
20260506172822 43 302 0.0 2.0 0.04 0.54 0.33 97 1008.8
20260506172349 43 303 0.0 1.0 0.03 0.53 0.32 97 1008.8
20260506171828 43 63 0.0 1.0 0.04 0.53 0.32 98 1008.8
20260506171334 43 234 0.0 5.0 0.04 0.53 0.32 97 1009.0
20260506170814 43 257 1.0 5.0 0.03 0.52 0.31 97 1008.9
20260506170314 43 222 1.0 4.0 0.04 0.52 0.31 97 1008.9
20260506165821 43 244 1.0 4.0 0.03 0.51 0.30 97 1008.8
20260506165321 43 240 1.0 3.0 0.04 0.51 0.30 97 1008.8
20260506164828 43 291 1.0 3.0 0.05 0.51 0.30 97 1008.8
20260506163817 43 314 0.0 4.0 0.05 0.50 0.29 97 1009.0
20260506163317 43 258 1.0 4.0 0.06 0.50 0.29 97 1009.1
20260506162823 42 295 0.0 2.0 0.07 0.50 0.29 97 1009.1
20260506162406 42 293 0.0 2.0 0.07 0.50 0.29 97 1009.0
20260506161821 42 304 0.0 2.0 0.07 0.49 0.28 97 1009.2
20260506161348 42 117 0.0 3.0 0.07 0.49 0.28 97 1009.3
20260506160834 42 228 0.0 3.0 0.08 0.49 0.28 97 1009.4
20260506160328 42 295 0.0 4.0 0.07 0.48 0.27 97 1009.3
20260506155832 42 304 1.0 7.0 0.08 0.48 0.27 97 1009.4
20260506155312 42 295 1.0 7.0 0.08 0.47 0.26 97 1009.4
20260506154812 42 278 1.0 5.0 0.07 0.46 0.25 97 1009.5
20260506154335 42 287 1.0 5.0 0.06 0.45 0.24 97 1009.4
20260506153821 42 259 1.0 5.0 0.07 0.45 0.24 97 1009.4
20260506153321 42 255 1.0 7.0 0.06 0.44 0.23 97 1009.6
20260506152827 42 297 2.0 7.0 0.05 0.43 0.22 97 1009.4
20260506152326 42 233 2.0 6.0 0.06 0.43 0.22 97 1009.4
20260506151833 42 300 2.0 6.0 0.05 0.42 0.21 97 1009.4
20260506151312 43 281 1.0 5.0 0.05 0.42 0.21 97 1009.6
20260506150812 43 302 1.0 4.0 0.04 0.41 0.20 96 1009.5
20260506150319 43 188 1.0 4.0 0.04 0.41 0.20 96 1009.3
20260506145826 43 304 1.0 4.0 0.04 0.40 0.19 96 1009.3
20260506145326 43 234 1.0 4.0 0.03 0.39 0.18 96 1009.3
20260506144853 43 232 0.0 2.0 0.03 0.39 0.18 96 1009.1
20260506144310 43 270 0.0 2.0 0.03 0.39 0.18 96 1009.1
20260506143818 43 263 0.0 3.0 0.02 0.38 0.17 96 1009.1
20260506143335 43 263 1.0 3.0 0.03 0.38 0.17 96 1009.2
20260506142840 43 251 0.0 2.0 0.03 0.38 0.17 96 1009.2
20260506142326 43 271 0.0 2.0 0.02 0.37 0.16 96 1009.1
20260506141826 43 253 0.0 4.0 0.02 0.37 0.16 96 1009.0
20260506141332 43 275 0.0 4.0 0.02 0.37 0.16 96 1009.2
20260506140818 43 296 0.0 3.0 0.02 0.37 0.16 96 1009.3
20260506140325 43 138 1.0 3.0 0.02 0.37 0.16 96 1009.4
20260506135850 44 293 0.0 2.0 0.01 0.36 0.15 96 1009.3
20260506135329 44 297 0.0 2.0 0.01 0.36 0.15 96 1009.3
20260506134816 43 302 0.0 6.0 0.01 0.36 0.15 96 1009.2
20260506134320 43 250 0.0 6.0 0.01 0.36 0.15 95 1009.3
20260506133827 43 265 1.0 4.0 0.02 0.36 0.15 95 1009.4
20260506133327 44 295 2.0 4.0 0.01 0.35 0.14 95 1009.2
20260506132815 44 291 1.0 4.0 0.01 0.35 0.14 95 1009.1
20260506132314 44 293 1.0 4.0 0.02 0.35 0.14 96 1009.2
20260506131821 45 273 0.0 2.0 0.02 0.35 0.14 96 1009.3
20260506131326 44 257 0.0 3.0 0.02 0.35 0.14 96 1009.4
20260506130833 44 242 1.0 3.0 0.02 0.35 0.14 96 1009.4
20260506125819 44 236 0.0 4.0 0.03 0.35 0.14 96 1009.6
20260506125326 44 224 0.0 2.0 0.03 0.35 0.14 96 1009.6
20260506124826 44 258 0.0 2.0 0.04 0.35 0.14 96 1009.8
20260506124311 44 231 0.0 3.0 0.03 0.34 0.13 96 1010.0
20260506123811 44 229 0.0 2.0 0.03 0.34 0.13 96 1009.9
20260506123311 44 302 1.0 2.0 0.03 0.34 0.13 96 1009.7
20260506122818 44 295 0.0 2.0 0.03 0.34 0.13 96 1009.7
20260506122325 44 319 0.0 2.0 0.02 0.33 0.12 95 1009.6
20260506121824 44 298 1.0 3.0 0.03 0.33 0.12 95 1009.7
20260506121310 44 210 0.0 3.0 0.03 0.33 0.12 95 1009.7
20260506120817 44 188 1.0 3.0 0.03 0.33 0.12 95 1009.8
20260506120317 44 314 1.0 3.0 0.02 0.32 0.11 94 1009.9
20260506115823 44 283 1.0 4.0 0.02 0.32 0.11 94 1010.1
20260506115323 44 124 0.0 4.0 0.02 0.32 0.11 95 1010.2
20260506114830 45 304 1.0 2.0 0.01 0.31 0.10 95 1009.9
20260506114312 45 255 0.0 2.0 0.01 0.31 0.10 95 1009.9
20260506113812 45 249 0.0 2.0 0.01 0.31 0.10 95 1009.8
20260506113319 45 308 0.0 3.0 0.01 0.31 0.10 94 1009.9
20260506112825 45 328 0.0 3.0 0.01 0.31 0.10 94 1010.1
20260506112324 45 278 0.0 3.0 0.01 0.31 0.10 94 1010.2
20260506111824 45 277 0.0 3.0 0.00 0.30 0.09 94 1010.2
20260506111310 45 284 0.0 3.0 0.00 0.30 0.09 95 1010.0
20260506110810 46 290 0.0 3.0 0.00 0.30 0.09 95 1009.7
20260506110309 46 268 0.0 3.0 0.00 0.30 0.09 96 1009.5
20260506105822 46 297 1.0 3.0 0.00 0.30 0.09 96 1009.4
20260506105329 46 288 0.0 2.0 0.00 0.30 0.09 96 1009.3
20260506104829 46 255 0.0 1.0 0.00 0.30 0.09 96 1009.1
20260506104335 46 231 0.0 1.0 0.00 0.30 0.09 96 1009.1
20260506103816 46 309 0.0 1.0 0.00 0.30 0.09 96 1009.3
20260506103318 46 37 0.0 1.0 0.01 0.30 0.09 95 1009.4
20260506102824 46 248 0.0 1.0 0.02 0.30 0.09 96 1009.6
20260506102324 46 139 0.0 1.0 0.02 0.30 0.09 96 1009.5
20260506101832 46 120 0.0 1.0 0.02 0.30 0.09 96 1009.3
20260506101311 46 121 0.0 1.0 0.02 0.30 0.09 95 1009.3
20260506100840 46 120 0.0 2.0 0.02 0.30 0.09 95 1009.4
20260506100318 46 273 0.0 2.0 0.03 0.30 0.09 95 1009.4
20260506095826 47 97 0.0 3.0 0.05 0.30 0.09 95 1009.4
20260506095354 47 57 0.0 2.0 0.05 0.30 0.09 95 1009.5
20260506094813 47 327 0.0 1.0 0.05 0.30 0.09 95 1009.5
20260506094311 47 269 0.0 4.0 0.05 0.30 0.09 95 1009.6
20260506093818 48 238 1.0 4.0 0.04 0.29 0.08 96 1009.2
20260506093318 48 83 0.0 2.0 0.04 0.29 0.08 96 1009.6
20260506092824 48 115 0.0 1.0 0.03 0.28 0.07 96 1009.6
20260506092325 48 117 0.0 2.0 0.03 0.28 0.07 96 1009.5
20260506091832 48 129 0.0 5.0 0.03 0.28 0.07 96 1009.4
20260506091311 49 101 0.0 5.0 0.03 0.28 0.07 96 1009.2
20260506090819 49 94 0.0 5.0 0.03 0.28 0.07 96 1009.6
20260506090318 49 40 1.0 2.0 0.02 0.27 0.06 96 1009.5
20260506085845 49 32 0.0 3.0 0.00 0.25 0.04 96 1009.8
20260506085323 49 108 1.0 4.0 0.00 0.25 0.04 96 1009.6
20260506084830 49 96 0.0 1.0 0.00 0.25 0.04 96 1009.3
20260506084336 49 111 0.0 1.0 0.00 0.25 0.04 96 1009.6
20260506083816 50 98 0.0 1.0 0.00 0.25 0.04 96 1009.6
20260506083316 50 65 0.0 4.0 0.00 0.25 0.04 96 1009.4
20260506082821 50 65 1.0 4.0 0.00 0.25 0.04 96 1009.4
20260506082321 50 79 0.0 4.0 0.00 0.25 0.04 96 1009.4
20260506081848 50 105 1.0 4.0 0.00 0.25 0.04 96 1009.2
20260506081312 50 113 1.0 3.0 0.00 0.25 0.04 96 1009.3
20260506080820 50 357 0.0 2.0 0.00 0.25 0.04 96 1009.6
20260506080319 51 113 0.0 2.0 0.00 0.25 0.04 96 1009.4
20260506073324 51 126 1.0 3.0 0.00 0.25 0.04 96 1009.4
20260506072823 51 58 1.0 3.0 0.00 0.25 0.04 96 1009.3
20260506072330 51 118 0.0 1.0 0.00 0.25 0.04 96 1009.1
20260506071810 51 110 0.0 2.0 0.00 0.25 0.04 96 1009.5
20260506071337 51 77 0.0 2.0 0.00 0.25 0.04 96 1009.4
20260506070816 51 109 0.0 2.0 0.00 0.25 0.04 96 1009.5
20260506070322 51 127 1.0 4.0 0.00 0.25 0.04 96 1009.2
20260506062326 52 79 0.0 5.0 0.02 0.25 0.04 97 1009.4
20260506061833 52 84 1.0 5.0 0.02 0.25 0.04 97 1009.2
20260506061312 52 105 0.0 1.0 0.02 0.25 0.04 97 1009.0
20260506060812 52 109 0.0 1.0 0.02 0.25 0.04 97 1009.1
20260506060320 52 108 0.0 1.0 0.03 0.25 0.04 97 1009.5
20260506051318 53 258 0.0 0.0 0.02 0.23 0.02 96 1009.0
20260506050826 53 258 0.0 1.0 0.02 0.23 0.02 96 1008.9
20260506050333 53 259 0.0 1.0 0.01 0.22 0.01 96 1009.5
20260506044841 53 74 0.0 1.0 0.02 0.22 0.01 95 1009.1
20260506044326 53 75 0.0 1.0 0.02 0.22 0.01 95 1008.8
20260506043833 53 75 0.0 1.0 0.02 0.22 0.01 95 1008.9
20260506043313 53 75 0.0 1.0 0.03 0.22 0.01 95 1008.6
20260506042819 53 67 0.0 1.0 0.04 0.22 0.01 95 1008.6
20260506042319 53 68 0.0 2.0 0.04 0.22 0.01 95 1008.4
20260506041819 53 68 0.0 2.0 0.03 0.21 0.00 94 1008.6
20260506041325 53 82 0.0 3.0 0.03 0.21 0.00 94 1008.5
20260506040825 53 86 1.0 3.0 0.03 0.21 0.00 94 1008.5
20260506040332 53 92 0.0 1.0 0.03 0.21 0.00 94 1008.7
20260506035810 53 78 0.0 1.0 0.03 0.20 0.20 93 1008.7
20260506035317 54 77 0.0 2.0 0.04 0.20 0.20 93 1008.8
20260506034817 53 102 0.0 2.0 0.04 0.20 0.20 93 1008.8
20260506034343 53 89 0.0 1.0 0.04 0.20 0.20 93 1008.6
20260506033829 54 100 0.0 1.0 0.04 0.20 0.20 93 1008.6
20260506033329 54 221 0.0 1.0 0.03 0.19 0.19 93 1008.7
20260506032822 54 222 0.0 0.0 0.02 0.18 0.18 92 1008.6
20260506032323 54 222 0.0 1.0 0.02 0.18 0.18 92 1008.4
20260506031315 55 222 0.0 1.0 0.02 0.18 0.18 91 1008.3
20260506030815 55 223 0.0 1.0 0.02 0.18 0.18 90 1008.3
20260506030344 55 223 0.0 0.0 0.02 0.18 0.18 89 1008.3
20260506025850 56 223 0.0 0.0 0.01 0.17 0.17 88 1008.5
20260506025329 56 223 0.0 0.0 0.00 0.16 0.16 86 1008.4
20260506024835 56 264 0.0 1.0 0.00 0.16 0.16 86 1008.1
20260506024314 57 264 0.0 1.0 0.00 0.16 0.16 84 1007.9
20260506023841 57 264 0.0 2.0 0.00 0.16 0.16 82 1008.0
20260506023320 57 243 0.0 4.0 0.00 0.16 0.16 83 1007.9
20260506022847 57 299 1.0 4.0 0.00 0.16 0.16 83 1008.0
20260506022332 57 270 0.0 3.0 0.00 0.16 0.16 85 1007.9
20260506021833 58 298 1.0 4.0 0.00 0.16 0.16 87 1007.9
20260506021317 58 302 1.0 4.0 0.00 0.16 0.16 89 1007.7
20260506020845 58 304 1.0 4.0 0.00 0.16 0.16 92 1007.8
20260506020323 58 293 1.0 4.0 0.00 0.16 0.16 95 1007.5
20260506015829 58 255 0.0 1.0 0.00 0.16 0.16 94 1007.2
20260506015313 58 79 0.0 0.0 0.00 0.16 0.16 94 1007.1
20260506014815 58 79 0.0 0.0 0.00 0.16 0.16 94 1007.3
20260506014322 58 79 0.0 0.0 0.00 0.16 0.16 94 1007.4
20260506013826 58 79 0.0 0.0 0.00 0.16 0.16 94 1007.4
20260506013335 58 79 0.0 0.0 0.00 0.16 0.16 94 1007.2
20260506012814 58 79 0.0 0.0 0.00 0.16 0.16 94 1007.0
20260506012344 58 79 0.0 0.0 0.00 0.16 0.16 94 1006.9
20260506011823 58 79 0.0 0.0 0.02 0.16 0.16 94 1006.8
20260506011312 58 79 0.0 0.0 0.02 0.16 0.16 94 1006.7
20260506010814 58 79 0.0 0.0 0.02 0.16 0.16 94 1006.5
20260506010314 59 79 0.0 0.0 0.02 0.16 0.16 93 1006.4
20260506005840 59 79 0.0 1.0 0.02 0.16 0.16 93 1006.3
20260506005348 59 79 0.0 1.0 0.02 0.16 0.16 93 1006.2
20260506004835 59 58 0.0 1.0 0.02 0.16 0.16 92 1006.5
20260506004323 60 58 0.0 1.0 0.02 0.16 0.16 92 1006.3
20260506003822 60 58 0.0 1.0 0.02 0.16 0.16 91 1006.3
20260506003336 61 58 0.0 1.0 0.02 0.16 0.16 89 1006.2
20260506002820 61 56 0.0 1.0 0.02 0.16 0.16 87 1006.2
20260506002340 62 78 0.0 2.0 0.01 0.15 0.15 86 1005.8
20260506001826 62 100 1.0 2.0 0.00 0.14 0.14 85 1005.8
20260506001332 61 84 0.0 1.0 0.00 0.14 0.14 85 1005.9
20260506000812 61 81 0.0 1.0 0.00 0.14 0.14 87 1005.7
20260506000332 61 92 0.0 1.0 0.00 0.14 0.14 87 1005.8
20260505235816 61 92 0.0 1.0 0.00 0.14 0.14 88 1005.7
20260505235343 60 92 0.0 1.0 0.00 0.14 0.14 90 1005.7
20260505234823 60 92 0.0 1.0 0.00 0.14 0.14 90 1005.6
20260505234330 61 92 0.0 1.0 0.00 0.14 0.14 90 1005.6
20260505233809 61 92 0.0 1.0 0.00 0.14 0.14 89 1005.4
20260505233318 61 93 0.0 1.0 0.00 0.14 0.14 89 1005.5
20260505232817 61 37 0.0 1.0 0.00 0.14 0.14 89 1005.5
20260505232322 62 37 0.0 1.0 0.00 0.14 0.14 89 1005.7
20260505231822 62 37 0.0 1.0 0.00 0.14 0.14 88 1005.6
20260505231328 62 43 0.0 1.0 0.00 0.14 0.14 88 1005.6
20260505230855 62 45 0.0 2.0 0.00 0.14 0.14 88 1005.4
20260505230314 62 44 0.0 2.0 0.00 0.14 0.14 87 1005.3
20260505225847 63 51 0.0 2.0 0.00 0.14 0.14 88 1005.3
20260505225326 63 60 1.0 3.0 0.00 0.14 0.14 87 1005.1
20260505224833 63 60 1.0 3.0 0.00 0.14 0.14 87 1004.9
20260505224339 63 52 2.0 3.0 0.00 0.14 0.14 86 1004.9
20260505223818 63 51 1.0 2.0 0.00 0.14 0.14 86 1005.1
20260505223346 63 49 0.0 2.0 0.00 0.14 0.14 85 1005.0
20260505222824 63 60 0.0 2.0 0.00 0.14 0.14 86 1005.0
20260505222331 62 60 0.0 3.0 0.00 0.14 0.14 87 1005.0